Погода в Левице

Словакия     48°12′52″N   18°36′19″E
темп.,
°C
ветер,
м/с
пор.,
м/с
влажн.,
%
обл.,
%
осадки,
мм/ч
давл.,
гПа
погр.,
м
24 мая, вт
вт2423:00+12в5117798 0.0 1010222
02:00+13в61171100 0.0 1009350
05:00+13в5976100 0.1 1009263
08:00+12в5982100 0.4 1010301
11:00+14вюв6775100 0.0 1011472
14:00+16вюв677458 0.0 1011565
17:00+17вюв557353 0.0 1011560
20:00+15всв368199 0.0 1011154
25 мая, ср
ср2523:00+13в3482100 0.0 101258
02:00+12всв228641 0.1 101315
05:00+13в2384100 0.1 101377
08:00+15вюв118191 0.1 1014127
11:00+19юв116920 0.0 1015610
14:00+16зсз6886100 0.2 1015451
17:00+18сз467246 0.0 1015816
20:00+15сз5884100 0.0 1016336
26 мая, чт
чт2623:00+12сз34933 0.0 101969
02:00+11ссз23925 0.0 102038
05:00+10ссз119016 0.0 102111
08:00+15з2379100 0.0 1022243
11:00+20з455930 0.0 1022933
14:00+22зюз4852100 0.0 10212157
17:00+20зсз356664 0.1 1020508
20:00+18сз2269100 0.1 102017
27 мая, пт
пт2723:00+17сз116973 0.0 102116
02:00+13ссз11820 0.0 102111
05:00+12сз11840 0.0 102010
08:00+17з23710 0.0 1020263
11:00+21з69590 0.0 10181192
14:00+22з7106398 0.3 10161491
17:00+22зсз497198 1.4 1014864
20:00+15ссз815835 1.8 1015535
28 мая, сб
сб2823:00+14сз512735 0.0 1016728
02:00+12ссз5136417 0.0 1016488
05:00+9сз227638 0.0 101617
08:00+13сз49638 0.0 10171080
11:00+15сз8115199 0.0 10171805
14:00+17сз91344100 0.0 10162805
17:00+16сз711535 0.0 10172172
20:00+12сз22705 0.0 101725